"2009-06-13 00:00:00",970865,6.922,138.7,1.677,0.238,16.82,106.4642,15.82,16.88,49.84,0,110.5,13.3,16.63,100.7
"2009-06-13 00:00:30",970866,7.746,138.9,1.091,0.278,17.33,106.4549,15.8,16.86,50.63,0,110.5,13.3,16.61,100.9
"2009-06-13 00:01:00",970867,8.69,140.9,1.703,0.583,17.35,106.4549,15.8,16.88,52.18,0,110.5,13.3,16.61,102.9
"2009-06-13 00:01:30",970868,10.42,146.1,6.702,1.51,19.26,106.4549,15.8,17.02,52.82,0,110.5,13.27,16.61,108.1
"2009-06-13 00:02:00",970869,10.22,144.6,6.249,1.104,18.55,106.4529,15.79,16.93,51.71,0,110.5,13.27,16.60,106.6
"2009-06-13 00:02:30",970870,10.6,145.6,7.805,1.151,20.15,106.4335,15.74,16.92,51.2,0,110.5,13.27,16.55,107.6
"2009-06-13 00:03:00",970871,10.23,140.3,0.787,0.231,-9.31,106.4211,15.71,16.81,52.22,0,110.5,13.3,16.52,102.3
"2009-06-13 00:03:30",970872,10.83,145,7.08,1.367,7.536,106.4211,15.71,16.95,52.74,0,110.5,13.26,16.52,107.0
"2009-06-13 00:04:00",970873,12.18,150.1,7.76,1.335,-14.3,106.4155,15.7,16.93,53.44,0,110.5,13.26,16.50,112.1
"2009-06-13 00:04:30",970874,12.13,151.6,6.606,1.249,9.65,106.3928,15.64,16.91,53.88,0,110.5,13.26,16.45,113.6
"2009-06-13 00:05:00",970875,11.89,152.1,7.424,1.538,19.64,106.3951,15.64,16.92,54.06,0,110.5,13.26,16.45,114.1
"2009-06-13 00:05:30",970876,11.59,151.1,6.625,1.249,-15.59,106.3988,15.65,16.9,53.71,0,110.5,13.25,16.46,113.1
"2009-06-13 00:06:00",970877,11.5,151.8,7.508,1.311,-7.168,106.3872,15.62,16.83,52.32,0,110.5,13.26,16.43,113.8
"2009-06-13 00:06:30",970878,10.56,146.6,4.639,0.74,0.662,106.3805,15.61,16.81,53.02,0,110.5,13.26,16.41,108.6
"2009-06-13 00:07:00",970879,12.62,156.3,6.043,1.149,-10.52,106.3713,15.58,16.82,54.92,0,110.5,13.26,16.39,118.3
"2009-06-13 00:07:30",970880,11.69,150.9,6.474,1.249,-45.4,106.3547,15.54,16.82,54.85,0,110.5,13.26,16.35,112.9
"2009-06-13 00:08:00",970881,11.85,147.1,6.487,1.358,-38.23,106.3334,15.49,16.82,54.53,0,110.5,13.26,16.29,109.1
"2009-06-13 00:08:30",970882,13,150.9,6.414,1.255,-49.07,106.3154,15.44,16.78,55.11,0,110.5,13.26,16.25,112.9
"2009-06-13 00:09:00",970883,11.61,141.9,3.658,0.841,-57.86,106.2886,15.37,16.62,56.51,0,110.5,13.26,16.18,103.9
"2009-06-13 00:09:30",970884,12.57,147.4,7.256,1.381,-52.99,106.2646,15.31,16.57,58.42,0,110.5,13.26,16.12,109.4
"2009-06-13 00:10:00",970885,10.82,139.1,0.718,0.34,-44.97,106.2421,15.25,16.45,58.8,0,110.5,13.3,16.06,101.1
"2009-06-13 00:10:30",970886,11.97,146.5,6.92,1.363,-55.83,106.2187,15.19,16.48,58.95,0,110.5,13.27,16.00,108.5
"2009-06-13 00:11:00",970887,12.63,150.8,4.741,0.96,-53.88,106.1908,15.12,16.69,59.29,0,110.5,13.27,15.93,112.8
"2009-06-13 00:11:30",970888,12.48,149,5.575,1.144,-54.4,106.1844,15.11,16.54,59.48,0,110.5,13.27,15.91,111.0
"2009-06-13 00:12:00",970889,11.12,142.1,5.76,1.172,-56.81,106.1556,15.03,16.35,59.56,0,110.4,13.28,15.84,104.1
"2009-06-13 00:12:30",970890,10.45,138.7,0.046,0.036,-55.55,106.1486,15.01,16.22,59.85,0,110.5,13.31,15.82,100.7
"2009-06-13 00:13:00",970891,11.93,145.1,7.277,1.406,-50.6,106.1229,14.95,16.34,60.37,0,110.5,13.28,15.75,107.1
"2009-06-13 00:13:30",970892,10.8,140.9,4.998,0.503,-46.64,106.1058,14.9,16.27,60.67,0,110.4,13.28,15.71,102.9
"2009-06-13 00:14:00",970893,11.82,152.9,3.89,0.939,-0.204,106.0864,14.85,16.4,61.08,0,110.4,13.28,15.66,114.9
"2009-06-13 00:14:30",970894,10.87,152.5,5.115,1.001,-1.06,106.0671,14.8,16.35,60.79,0,110.4,13.28,15.61,114.5
"2009-06-13 00:15:00",970895,10.95,152.9,4.508,0.99,20.68,106.0593,14.78,16.32,61.21,0,110.4,13.28,15.59,114.9
"2009-06-13 00:15:30",970896,9.15,147.5,6.392,1.44,13.34,106.0368,14.73,16.14,61.22,0,110.4,13.28,15.53,109.5
"2009-06-13 00:16:00",970897,7.55,143.9,0.935,0.21,-9.14,106.0324,14.72,15.91,60.79,0,110.4,13.31,15.52,105.9
"2009-06-13 00:16:30",970898,7.971,144.2,5.679,1.21,-6.062,106.0097,14.66,15.86,61.08,0,110.4,13.28,15.46,106.2
"2009-06-13 00:17:00",970899,8.07,146.8,10.18,1.253,-20.21,106.0036,14.64,16,61.14,0,110.4,13.28,15.45,108.8
"2009-06-13 00:17:30",970900,8.05,134.3,7.06,1.315,-28.27,105.9852,14.59,16.02,60.51,0,110.4,13.28,15.40,96.3
"2009-06-13 00:18:00",970901,8.79,143.3,4.754,1.344,-39.4,105.9801,14.58,16,60.61,0,110.4,13.28,15.38,105.3
"2009-06-13 00:18:30",970902,9.97,137.6,5.634,0.868,-14.42,105.9559,14.52,16.01,61.18,0,110.4,13.28,15.32,99.6
"2009-06-13 00:19:00",970903,9.61,128.5,7.049,1.239,-15.45,105.9511,14.51,15.77,61.57,0,110.4,13.28,15.31,90.5
"2009-06-13 00:19:30",970904,9.72,132.5,6.322,1.086,-42.07,105.9289,14.45,15.87,61.88,0,110.4,13.28,15.25,94.5
"2009-06-13 00:20:00",970905,9.16,131.8,6.671,1.143,-14.06,105.9179,14.42,15.84,63.55,0,110.4,13.27,15.22,93.8
"2009-06-13 00:20:30",970906,11.05,133.6,4.673,0.73,6.357,105.8979,14.37,15.83,64.15,0,110.4,13.27,15.17,95.6
"2009-06-13 00:21:00",970907,10.72,124.3,5.787,0.966,3.628,105.8827,14.33,15.79,64.04,0,110.4,13.27,15.13,86.3
"2009-06-13 00:21:30",970908,8.87,118.4,6.069,1.622,16.96,105.8564,14.27,15.72,62.67,0,110.4,13.27,15.07,80.4
"2009-06-13 00:22:00",970909,6.344,124.9,8.22,1.593,12.35,105.8497,14.25,15.43,59.53,0,110.4,13.27,15.05,86.9
"2009-06-13 00:22:30",970910,6.81,128,7.646,0.806,-6.582,105.8333,14.21,15.55,58.01,0,110.4,13.27,15.01,90.0
"2009-06-13 00:23:00",970911,7.341,111.1,10.14,1.116,2.005,105.8333,14.21,15.46,55.21,0,110.4,13.27,15.01,73.1
"2009-06-13 00:23:30",970912,6.655,94.3,11.96,1.128,18.98,105.8175,14.17,15.51,55.12,0,110.4,13.28,14.97,56.3
"2009-06-13 00:24:00",970913,7.033,72.89,9.09,0.749,3.487,105.8182,14.17,15.34,55.64,0,110.4,13.28,14.97,34.9
"2009-06-13 00:24:30",970914,6.637,65.05,6.871,1.145,19.52,105.8218,14.18,15.43,56.34,0,110.4,13.28,14.98,27.1
"2009-06-13 00:25:00",970915,7.117,102.3,14.89,1.743,19.76,105.8205,14.17,15.52,56.02,0,110.4,13.28,14.97,64.3
"2009-06-13 00:25:30",970916,5.361,113.8,13.97,1.479,4.778,105.8087,14.14,15.37,55.66,0,110.4,13.29,14.94,75.8
"2009-06-13 00:26:00",970917,5.398,116.8,12.6,1.926,16.11,105.8055,14.13,15.38,56.37,0,110.4,13.29,14.94,78.8
"2009-06-13 00:26:30",970918,4.776,82.5,23.66,1.786,18.4,105.81,14.15,15.37,55.95,0,110.3,13.29,14.95,44.5
"2009-06-13 00:27:00",970919,4.064,59.71,12.94,1.434,17.44,105.8124,14.15,15.33,56.43,0,110.3,13.29,14.95,21.7
"2009-06-13 00:27:30",970920,2.579,49.43,19.63,1.136,16.83,105.8169,14.16,15.32,57.43,0,110.3,13.29,14.97,11.4
"2009-06-13 00:28:00",970921,3.481,35.74,17.44,1.37,16.76,105.7972,14.11,15.31,57.99,0,110.3,13.29,14.91,357.7
"2009-06-13 00:28:30",970922,3.345,63.51,25.17,1.563,17.96,105.7848,14.08,15.34,58.23,0,110.3,13.29,14.88,25.5
"2009-06-13 00:29:00",970923,2.537,64.21,19.14,1.403,15.56,105.7837,14.08,15.2,57.88,0,110.3,13.29,14.88,26.2
"2009-06-13 00:29:30",970924,1.499,74.1,17.72,0.779,15.14,105.7586,14.01,15.13,57.62,0,110.3,13.29,14.82,36.1
"2009-06-13 00:30:00",970925,2.125,84.6,4.621,0.34,14.71,105.751,14,15.06,57.7,0,110.3,13.33,14.80,46.6
"2009-06-13 00:30:30",970926,1.949,93.9,6.388,0.267,14.64,105.7482,13.99,15.02,58.01,0,110.3,13.33,14.79,55.9
"2009-06-13 00:31:00",970927,1.866,89.2,8.36,0.316,14.67,105.7293,13.94,15.01,57.04,0,110.3,13.33,14.74,51.2
"2009-06-13 00:31:30",970928,1.705,86.7,16.2,0.429,14.55,105.7192,13.91,15,57.16,0,110.3,13.34,14.71,48.7
"2009-06-13 00:32:00",970929,3.038,102.1,12.71,0.366,14.38,105.7172,13.91,14.99,60.09,0,110.3,13.34,14.71,64.1
"2009-06-13 00:32:30",970930,2.937,88.1,5.212,0.335,14.63,105.7172,13.91,14.98,62.14,0,110.3,13.34,14.71,50.1
"2009-06-13 00:33:00",970931,2.758,101,9.14,0.677,14.75,105.7132,13.9,14.97,62.28,0,110.3,13.34,14.70,63.0
"2009-06-13 00:33:30",970932,5.13,104.4,7.244,0.459,14.02,105.6935,13.85,14.96,63.86,0,110.3,13.34,14.65,66.4
"2009-06-13 00:34:00",970933,4.546,92.7,10.6,0.737,14.5,105.6833,13.82,14.97,68.32,0,110.3,13.34,14.62,54.7
"2009-06-13 00:34:30",970934,4.878,79.81,7.49,0.395,14.4,105.6833,13.82,14.96,70.03,0,110.3,13.34,14.62,41.8
"2009-06-13 00:35:00",970935,6.688,97.3,8.45,1.182,15.56,105.6833,13.82,15.13,71.55,0,110.3,13.31,14.62,59.3
"2009-06-13 00:35:30",970936,7.241,112.9,6.351,1.482,15.87,105.674,13.8,15.2,70.62,0,110.3,13.31,14.60,74.9
"2009-06-13 00:36:00",970937,5.967,112.8,5.048,0.641,14.54,105.6529,13.74,14.95,68.69,0,110.3,13.32,14.54,74.8
"2009-06-13 00:36:30",970938,6.2,109,4.121,0.279,13.54,105.6495,13.74,14.87,67.76,0,110.3,13.34,14.54,71.0
"2009-06-13 00:37:00",970939,6.654,109.8,8.29,0.837,14.54,105.6495,13.74,14.95,67.37,0,110.3,13.3,14.54,71.8
"2009-06-13 00:37:30",970940,7.333,112.1,7.933,1.106,15.58,105.6476,13.73,14.89,66.75,0,110.3,13.3,14.53,74.1
"2009-06-13 00:38:00",970941,7.664,116.7,6.341,1.369,15.1,105.6273,13.68,15.05,66.37,0,110.3,13.3,14.48,78.7
"2009-06-13 00:38:30",970942,7,107.7,8.11,1.335,15.8,105.6157,13.65,14.82,64.83,0,110.3,13.3,14.45,69.7
"2009-06-13 00:39:00",970943,5.514,100.1,6.796,0.708,15.59,105.6157,13.65,14.81,63.65,0,110.3,13.33,14.45,62.1
"2009-06-13 00:39:30",970944,4.67,99.8,1.691,0.173,12.07,105.6157,13.65,14.73,63.27,0,110.3,13.33,14.45,61.8
"2009-06-13 00:40:00",970945,5.163,98.7,4.677,0.277,14.52,105.6157,13.65,14.72,62.98,0,110.3,13.33,14.45,60.7
"2009-06-13 00:40:30",970946,5.049,98.7,4.212,0.478,14.62,105.6157,13.65,14.71,62.68,0,110.3,13.33,14.45,60.7
"2009-06-13 00:41:00",970947,4.517,95.4,3.63,0.363,14.74,105.6157,13.65,14.71,62.35,0,110.3,13.33,14.45,57.4
"2009-06-13 00:41:30",970948,5.298,100.5,4.933,0.322,14.62,105.6177,13.65,14.71,62.23,0,110.3,13.34,14.45,62.5
"2009-06-13 00:42:00",970949,6.204,99.5,4.463,0.349,14.69,105.6374,13.7,14.71,62.27,0,110.3,13.34,14.50,61.5
"2009-06-13 00:42:30",970950,6.541,94.4,5.179,0.407,14.7,105.6487,13.73,14.71,62.06,0,110.3,13.35,14.53,56.4
"2009-06-13 00:43:00",970951,5.872,95.8,5.334,0.196,14.56,105.6495,13.74,14.73,63,0,110.3,13.35,14.54,57.8
"2009-06-13 00:43:30",970952,5.745,102.9,2.084,0.355,14.96,105.6495,13.74,14.74,62.68,0,110.3,13.35,14.54,64.9
"2009-06-13 00:44:00",970953,5.61,103.3,2.651,0.214,14.87,105.6495,13.74,14.74,62.92,0,110.3,13.35,14.54,65.3
"2009-06-13 00:44:30",970954,5.297,111.8,1.648,0.172,15.14,105.6495,13.74,14.75,62.83,0,110.3,13.35,14.54,73.8
"2009-06-13 00:45:00",970955,5.091,111.6,1.422,0.213,15.17,105.6532,13.74,14.75,62.24,0,110.4,13.35,14.54,73.6
"2009-06-13 00:45:30",970956,5.124,112.5,1.582,0.394,15.16,105.6709,13.79,14.76,62.27,0,110.3,13.35,14.59,74.5
"2009-06-13 00:46:00",970957,5.216,115.6,3.1,0.135,15.34,105.6783,13.81,14.75,62.12,0,110.3,13.35,14.61,77.6
"2009-06-13 00:46:30",970958,4.919,115.5,1.705,0.134,15.26,105.6833,13.82,14.77,61.72,0,110.4,13.35,14.62,77.5
"2009-06-13 00:47:00",970959,4.96,115.4,3.032,0.236,15.44,105.6833,13.82,14.78,61.58,0,110.4,13.35,14.62,77.4
"2009-06-13 00:47:30",970960,5.096,123.1,1.719,0.157,15.69,105.6833,13.82,14.8,60.26,0,110.3,13.35,14.62,85.1
"2009-06-13 00:48:00",970961,4.635,122.4,1.278,0.227,15.7,105.6901,13.84,14.79,59.21,0,110.4,13.35,14.64,84.4
"2009-06-13 00:48:30",970962,4.096,125.2,1.678,0.178,15.63,105.7149,13.9,14.8,58.98,0,110.3,13.35,14.70,87.2
"2009-06-13 00:49:00",970963,3.951,121.9,3.892,0.218,15.47,105.7172,13.91,14.82,59.11,0,110.4,13.35,14.71,83.9
"2009-06-13 00:49:30",970964,4.243,120.1,3.441,0.272,15.44,105.7172,13.91,14.85,59.64,0,110.4,13.35,14.71,82.1
"2009-06-13 00:50:00",970965,4.027,120.9,2.351,0.264,15.62,105.7324,13.95,14.87,59.17,0,110.4,13.35,14.75,82.9
"2009-06-13 00:50:30",970966,3.492,118.7,3.96,0.157,15.43,105.751,14,14.9,59.2,0,110.4,13.35,14.80,80.7
"2009-06-13 00:51:00",970967,3.372,124.4,3.188,0.2,15.43,105.751,14,14.92,58.94,0,110.4,13.35,14.80,86.4
"2009-06-13 00:51:30",970968,3.588,117.7,3.518,0.178,15.47,105.7586,14.01,14.92,58.61,0,110.4,13.35,14.82,79.7
"2009-06-13 00:52:00",970969,3.699,118.3,3.138,0.335,15.42,105.7815,14.07,14.95,57.99,0,110.4,13.35,14.87,80.3
"2009-06-13 00:52:30",970970,4.09,110.8,4.581,0.389,15.33,105.7848,14.08,14.97,57.81,0,110.4,13.35,14.88,72.8
"2009-06-13 00:53:00",970971,4.688,106.7,2.724,0.24,15.41,105.7848,14.08,14.99,58.16,0,110.4,13.35,14.88,68.7
"2009-06-13 00:53:30",970972,4.63,105,3.643,0.273,15.29,105.7975,14.11,15.02,58.63,0,110.4,13.34,14.92,67.0
"2009-06-13 00:54:00",970973,4.231,107.5,2.192,0.618,15.22,105.815,14.16,15.04,59.36,0,110.4,13.34,14.96,69.5
"2009-06-13 00:54:30",970974,3.854,102.6,2.776,0.27,15.21,105.8187,14.17,15.06,59.65,0,110.4,13.34,14.97,64.6
"2009-06-13 00:55:00",970975,4.208,109.2,5.032,0.292,15.19,105.8187,14.17,15.09,59.86,0,110.4,13.34,14.97,71.2
"2009-06-13 00:55:30",970976,3.997,104.7,3.902,0.246,15.21,105.8187,14.17,15.11,60.15,0,110.4,13.34,14.97,66.7
"2009-06-13 00:56:00",970977,4.012,103.5,4.022,0.183,15.26,105.8187,14.17,15.13,60.52,0,110.4,13.34,14.97,65.5
"2009-06-13 00:56:30",970978,4.037,104.9,3.87,0.215,15.31,105.8192,14.17,15.13,60.12,0,110.4,13.34,14.97,66.9
"2009-06-13 00:57:00",970979,3.742,102.5,3.561,0.224,15.24,105.8209,14.17,15.13,59.98,0,110.4,13.34,14.98,64.5
"2009-06-13 00:57:30",970980,3.5,101.8,2.667,0.109,15.28,105.8218,14.18,15.14,60.04,0,110.4,13.34,14.98,63.8
"2009-06-13 00:58:00",970981,3.266,107.3,3.35,0.163,15.38,105.8254,14.19,15.15,59.8,0,110.4,13.34,14.99,69.3
"2009-06-13 00:58:30",970982,3.211,112.9,2.352,0.35,15.25,105.826,14.19,15.16,59.77,0,110.4,13.35,14.99,74.9
"2009-06-13 00:59:00",970983,3.846,107.4,3.527,0.197,15.23,105.8252,14.18,15.16,59.85,0,110.4,13.35,14.99,69.4
"2009-06-13 00:59:30",970984,3.334,113.3,4.346,0.22,15.32,105.8237,14.18,15.17,59.77,0,110.4,13.35,14.98,75.3
"2009-06-13 01:00:00",970985,3.048,117.7,3.853,0.148,15.38,105.8218,14.18,15.17,59.52,0,110.4,13.35,14.98,79.7
"2009-06-13 01:00:30",970986,3.224,115.6,2.467,0.059,15.45,105.8192,14.17,15.18,58.95,0,110.4,13.35,14.97,77.6
"2009-06-13 01:01:00",970987,3.224,110.8,2.288,0.109,15.53,105.8187,14.17,15.18,58.75,0,110.4,13.35,14.97,72.8
"2009-06-13 01:01:30",970988,2.983,116,3.027,0.125,15.55,105.8187,14.17,15.17,58.39,0,110.4,13.35,14.97,78.0
"2009-06-13 01:02:00",970989,2.684,120.7,1.258,0.096,15.52,105.819,14.17,15.16,58.09,0,110.4,13.35,14.97,82.7
"2009-06-13 01:02:30",970990,2.658,123.1,1.826,0.084,15.42,105.8187,14.17,15.16,57.66,0,110.4,13.35,14.97,85.1
"2009-06-13 01:03:00",970991,2.784,122.6,2.197,0.192,15.49,105.819,14.17,15.17,57.54,0,110.4,13.35,14.97,84.6
"2009-06-13 01:03:30",970992,3.09,120.3,2.502,0.124,15.64,105.819,14.17,15.18,57.55,0,110.4,13.35,14.97,82.3
"2009-06-13 01:04:00",970993,2.946,122.6,4.724,0.142,15.53,105.8187,14.17,15.18,57.47,0,110.4,13.35,14.97,84.6
"2009-06-13 01:04:30",970994,2.663,128.2,2.428,0.062,15.48,105.8243,14.18,15.18,57.43,0,110.4,13.35,14.98,90.2
"2009-06-13 01:05:00",970995,2.65,126.7,2.386,0.075,15.44,105.8285,14.19,15.19,57.12,0,110.4,13.35,15.00,88.7
"2009-06-13 01:05:30",970996,2.476,129.5,1.611,0.128,15.51,105.8376,14.22,15.19,56.74,0,110.4,13.35,15.02,91.5
"2009-06-13 01:06:00",970997,2.676,131,1.074,0.151,15.66,105.8435,14.23,15.18,56.66,0,110.4,13.35,15.03,93.0
"2009-06-13 01:06:30",970998,2.838,132.6,1.395,0.083,15.62,105.8491,14.25,15.19,56.71,0,110.4,13.35,15.05,94.6
"2009-06-13 01:07:00",970999,2.558,135.4,1.544,0.146,15.66,105.8525,14.26,15.19,56.69,0,110.4,13.35,15.06,97.4
"2009-06-13 01:07:30",971000,2.781,129.2,2.437,0.096,15.73,105.8525,14.26,15.2,56.86,0,110.4,13.35,15.06,91.2
"2009-06-13 01:08:00",971001,2.764,129.5,2.586,0.161,15.82,105.8519,14.25,15.22,56.77,0,110.4,13.35,15.06,91.5
"2009-06-13 01:08:30",971002,2.841,124.8,3.341,0.161,15.91,105.8525,14.26,15.22,56.91,0,110.4,13.35,15.06,86.8
"2009-06-13 01:09:00",971003,2.788,127.5,2.613,0.087,15.84,105.8516,14.25,15.22,56.97,0,110.4,13.35,15.05,89.5
"2009-06-13 01:09:30",971004,2.61,123.7,2.137,0.117,15.89,105.8544,14.26,15.24,57.02,0,110.4,13.35,15.06,85.7
"2009-06-13 01:10:00",971005,2.476,124.5,3.098,0.125,15.91,105.8753,14.31,15.25,57.13,0,110.4,13.35,15.12,86.5
"2009-06-13 01:10:30",971006,2.259,122.1,1.758,0.176,15.88,105.8843,14.34,15.26,57.11,0,110.4,13.35,15.14,84.1
"2009-06-13 01:11:00",971007,2.215,119.8,2.648,0.133,15.84,105.8857,14.34,15.27,57,0,110.4,13.34,15.14,81.8
"2009-06-13 01:11:30",971008,2.095,121.5,3.8,0.133,15.75,105.8857,14.34,15.29,56.9,0,110.4,13.34,15.14,83.5
"2009-06-13 01:12:00",971009,2.05,130.2,8.8,0.097,15.74,105.8851,14.34,15.29,56.8,0,110.4,13.34,15.14,92.2
"2009-06-13 01:12:30",971010,1.738,133.1,7.129,0.118,15.76,105.8919,14.36,15.3,56.89,0,110.4,13.34,15.16,95.1
"2009-06-13 01:13:00",971011,1.654,127.3,4.251,0.21,15.74,105.9108,14.4,15.32,56.77,0,110.4,13.34,15.21,89.3
"2009-06-13 01:13:30",971012,1.677,120.1,6.258,0.168,15.75,105.9169,14.42,15.34,56.64,0,110.4,13.34,15.22,82.1
"2009-06-13 01:14:00",971013,1.602,124.4,4.87,0.159,15.76,105.9163,14.42,15.35,56.58,0,110.4,13.34,15.22,86.4
"2009-06-13 01:14:30",971014,1.409,120.8,4.915,0.119,15.87,105.9163,14.42,15.37,56.32,0,110.4,13.34,15.22,82.8
"2009-06-13 01:15:00",971015,1.164,109.9,2.056,0.044,16.02,105.9145,14.41,15.38,55.8,0,110.4,13.35,15.22,71.9
"2009-06-13 01:15:30",971016,1.069,109.9,4.636,0.075,15.88,105.9235,14.44,15.39,55.22,0,110.4,13.35,15.24,71.9
"2009-06-13 01:16:00",971017,0.908,118.4,3.713,0.063,15.9,105.9379,14.47,15.42,54.89,0,110.4,13.35,15.28,80.4
"2009-06-13 01:16:30",971018,1.027,121.1,3.005,0.077,15.89,105.9431,14.49,15.42,54.82,0,110.4,13.35,15.29,83.1
"2009-06-13 01:17:00",971019,0.817,115.9,3.725,0.112,15.99,105.9474,14.5,15.43,54.69,0,110.4,13.35,15.30,77.9
"2009-06-13 01:17:30",971020,0.586,121.3,3.297,0.114,16,105.9471,14.5,15.45,54.61,0,110.4,13.35,15.30,83.3
"2009-06-13 01:18:00",971021,0.648,107.7,7.264,0.097,16.08,105.945,14.49,15.46,54.71,0,110.4,13.35,15.29,69.7
"2009-06-13 01:18:30",971022,0.655,105.4,3.222,0.042,16.18,105.9465,14.5,15.48,54.52,0,110.4,13.35,15.30,67.4
"2009-06-13 01:19:00",971023,0.673,98.6,2.5,0.049,15.99,105.9559,14.52,15.48,54.34,0,110.4,13.35,15.32,60.6
"2009-06-13 01:19:30",971024,0.647,99.6,5.068,0.056,16.09,105.9728,14.56,15.5,54.25,0,110.4,13.35,15.37,61.6
"2009-06-13 01:20:00",971025,0.595,110.6,2.488,0.066,16.23,105.9777,14.58,15.52,54.23,0,110.4,13.35,15.38,72.6
"2009-06-13 01:20:30",971026,0.485,116,2.045,0.043,16.2,105.9786,14.58,15.52,54.22,0,110.4,13.35,15.38,78.0
"2009-06-13 01:21:00",971027,0.43,117.5,4.858,0.055,16.2,105.9798,14.58,15.54,54.22,0,110.4,13.35,15.38,79.5
"2009-06-13 01:21:30",971028,0.454,120.6,2.84,0.051,15.94,105.9786,14.58,15.56,54.13,0,110.4,13.35,15.38,82.6
"2009-06-13 01:22:00",971029,0.384,134.4,3.089,0.054,15.78,105.9833,14.59,15.56,54.22,0,110.4,13.35,15.39,96.4
"2009-06-13 01:22:30",971030,0.311,128.5,2.608,0.026,16.06,105.9914,14.61,15.59,54.31,0,110.4,13.35,15.41,90.5
"2009-06-13 01:23:00",971031,0.289,134.4,5.055,0.046,15.95,106.0029,14.64,15.61,54.33,0,110.4,13.35,15.44,96.4
"2009-06-13 01:23:30",971032,0.185,147.7,6.005,0.048,15.96,106.0097,14.66,15.6,54.37,0,110.4,13.35,15.46,109.7
"2009-06-13 01:24:00",971033,0.208,154.8,9.77,0.046,15.85,106.0091,14.66,15.64,54.26,0,110.4,13.35,15.46,116.8
"2009-06-13 01:24:30",971034,0.25,154.8,6.911,0.055,15.81,106.0064,14.65,15.64,54.33,0,110.4,13.35,15.45,116.8
"2009-06-13 01:25:00",971035,0.224,162.3,7.201,0.05,15.8,106.01,14.66,15.65,54.27,0,110.4,13.35,15.46,124.3
"2009-06-13 01:25:30",971036,0.215,164.3,4.773,0.043,15.85,106.0084,14.65,15.65,54.19,0,110.4,13.35,15.46,126.3
"2009-06-13 01:26:00",971037,0.214,154.1,3.187,0.041,15.83,106.0248,14.7,15.68,54.07,0,110.4,13.35,15.50,116.1
"2009-06-13 01:26:30",971038,0.323,152.3,6.531,0.052,15.84,106.0343,14.72,15.7,53.93,0,110.4,13.35,15.52,114.3
"2009-06-13 01:27:00",971039,0.313,152.2,6.419,0.066,15.78,106.0349,14.72,15.7,53.74,0,110.4,13.35,15.53,114.2
"2009-06-13 01:27:30",971040,0.39,154.7,9.89,0.052,15.93,106.0351,14.72,15.71,53.69,0,110.4,13.34,15.53,116.7
"2009-06-13 01:28:00",971041,0.342,179.6,6.519,0.057,16.03,106.0351,14.72,15.73,53.45,0,110.4,13.34,15.53,141.6
"2009-06-13 01:28:30",971042,0.284,177.2,3.644,0.043,16.11,106.0346,14.72,15.74,53.3,0,110.4,13.34,15.52,139.2
"2009-06-13 01:29:00",971043,0.283,181.5,4.073,0.059,16.13,106.0298,14.71,15.74,53.42,0,110.4,13.34,15.51,143.5
"2009-06-13 01:29:30",971044,0.237,187.8,5.583,0.061,16.12,106.0396,14.73,15.75,53.52,0,110.4,13.34,15.54,149.8
"2009-06-13 01:30:00",971045,0.182,201.9,10.3,0.111,16.13,106.0523,14.77,15.76,53.7,0,110.4,13.34,15.57,163.9
"2009-06-13 01:30:30",971046,0.129,211.1,7.194,0.049,16.11,106.0562,14.78,15.78,53.83,0,110.4,13.34,15.58,173.1
"2009-06-13 01:31:00",971047,0.05,225.6,10.98,0.035,16.08,106.0618,14.79,15.8,52.7,0,110.4,13.34,15.59,187.6
"2009-06-13 01:31:30",971048,0.119,241.1,8.32,0.046,15.93,106.0597,14.79,15.8,51.91,0,110.4,13.35,15.59,203.1
"2009-06-13 01:32:00",971049,-0.017,259.7,18.35,0.068,15.8,106.0599,14.79,15.8,51.66,0,110.4,13.35,15.59,221.7
"2009-06-13 01:32:30",971050,0.001,215.2,21.29,0.049,16.11,106.0857,14.85,15.81,51.48,0,110.4,13.35,15.66,177.2
"2009-06-13 01:33:00",971051,-0.081,180.1,16.19,0.007,16.01,106.0917,14.87,15.83,51.4,0,110.4,13.35,15.67,142.1
"2009-06-13 01:33:30",971052,-0.082,184.5,11.62,0.004,16.05,106.0908,14.87,15.84,51.34,0,110.4,13.35,15.67,146.5
"2009-06-13 01:34:00",971053,-0.08,160.8,40.64,0.005,15.98,106.0945,14.87,15.85,51.27,0,110.4,13.35,15.68,122.8
"2009-06-13 01:34:30",971054,-0.072,104.7,72.44,0.019,15.92,106.1142,14.93,15.89,51.2,0,110.4,13.35,15.73,66.7
"2009-06-13 01:35:00",971055,0.283,130.5,12.23,0.164,15.78,106.1244,14.95,15.89,51.57,0,110.4,13.35,15.76,92.5
"2009-06-13 01:35:30",971056,0.555,155.6,11.32,0.22,15.76,106.1226,14.95,15.9,52,0,110.4,13.35,15.75,117.6
"2009-06-13 01:36:00",971057,0.682,154.2,4.092,0.107,15.59,106.1235,14.95,15.92,52.46,0,110.4,13.35,15.75,116.2
"2009-06-13 01:36:30",971058,0.651,159,2.99,0.095,15.68,106.1241,14.95,15.93,52.56,0,110.4,13.35,15.75,121.0
"2009-06-13 01:37:00",971059,0.629,174,8.45,0.207,15.81,106.1223,14.95,15.94,52.55,0,110.4,13.35,15.75,136.0
"2009-06-13 01:37:30",971060,0.8,189.9,4.502,0.076,15.77,106.1222,14.95,15.95,52.42,0,110.4,13.35,15.75,151.9
"2009-06-13 01:38:00",971061,0.814,201,2.337,0.058,15.65,106.1237,14.95,15.95,52.23,0,110.4,13.35,15.75,163.0
"2009-06-13 01:38:30",971062,0.624,200.1,1.163,0.061,15.45,106.1237,14.95,15.94,51.99,0,110.4,13.35,15.75,162.1
"2009-06-13 01:39:00",971063,0.473,207.2,5.606,0.039,15.71,106.122,14.95,15.94,52.29,0,110.4,13.35,15.75,169.2
"2009-06-13 01:39:30",971064,0.395,210.6,7.247,0.045,15.77,106.1225,14.95,15.95,53.22,0,110.4,13.35,15.75,172.6
"2009-06-13 01:40:00",971065,0.382,225,10.95,0.062,15.69,106.1225,14.95,15.95,53.53,0,110.4,13.35,15.75,187.0
"2009-06-13 01:40:30",971066,0.554,261.6,7.839,0.038,15.73,106.1222,14.95,15.97,53.4,0,110.4,13.35,15.75,223.6
"2009-06-13 01:41:00",971067,0.604,272.8,4.481,0.043,15.97,106.1214,14.94,15.97,53.23,0,110.4,13.35,15.75,234.8
"2009-06-13 01:41:30",971068,0.525,277.4,7.111,0.187,16.02,106.122,14.95,15.97,53.11,0,110.4,13.35,15.75,239.4
"2009-06-13 01:42:00",971069,0.226,301.3,6.474,0.071,15.84,106.1217,14.94,15.98,53.1,0,110.4,13.35,15.75,263.3
"2009-06-13 01:42:30",971070,0.265,298.5,6.293,0.067,15.82,106.1211,14.94,15.98,53.17,0,110.4,13.35,15.75,260.5
"2009-06-13 01:43:00",971071,0.414,313.3,8.44,0.165,15.92,106.1232,14.95,15.98,53.26,0,110.4,13.35,15.75,275.3
"2009-06-13 01:43:30",971072,0.334,317.6,4.392,0.093,15.95,106.1223,14.95,15.99,53.36,0,110.4,13.34,15.75,279.6
"2009-06-13 01:44:00",971073,0.451,311.6,12.19,0.075,16.01,106.122,14.95,15.99,53.48,0,110.4,13.34,15.75,273.6
"2009-06-13 01:44:30",971074,0.741,299.2,2.339,0.043,16.05,106.1223,14.95,15.98,53.49,0,110.4,13.34,15.75,261.2
"2009-06-13 01:45:00",971075,0.706,299.6,2.461,0.046,16.06,106.1214,14.94,15.98,52.79,0,110.4,13.34,15.75,261.6
"2009-06-13 01:45:30",971076,0.819,301.1,3.921,0.057,16.1,106.1217,14.94,15.98,52.15,0,110.4,13.34,15.75,263.1
"2009-06-13 01:46:00",971077,0.776,293.6,2.852,0.098,15.94,106.122,14.95,15.96,51.91,0,110.4,13.34,15.75,255.6
"2009-06-13 01:46:30",971078,0.808,281.8,4.179,0.115,15.86,106.1214,14.94,15.96,51.6,0,110.4,13.34,15.75,243.8
"2009-06-13 01:47:00",971079,0.397,263.3,6.099,0.063,15.87,106.122,14.95,15.95,51.72,0,110.4,13.34,15.75,225.3
"2009-06-13 01:47:30",971080,0.439,249.9,4.372,0.037,15.7,106.1217,14.94,15.95,51.79,0,110.4,13.34,15.75,211.9
"2009-06-13 01:48:00",971081,0.466,246.1,3.932,0.047,15.64,106.1217,14.94,15.94,51.89,0,110.4,13.35,15.75,208.1